This demonstration page uses our WeatherBlox Daily Observations layout. Learn more.

39.29038, -76.61219

Hourly Observations for April 9, 2018

Temp ( °F °C ) Dew Point ( °F °C ) Humidity (%) Winds ( mph kmh ) Pressure ( in mb ) Visibility ( mi km ) Precip ( " mm )
12:54 am 00:54 undefined 41 5 14 -10 33 33 undefined N/A 30.1 1019 N/A 0 0
1:54 am 01:54 undefined 40 4.4 13 -10.6 33 33 undefined N/A 30.14 1021 N/A 0 0
2:54 am 02:54 undefined 40 4.4 13 -10.6 33 33 undefined N/A 30.15 1021 N/A 0 0
3:54 am 03:54 undefined 39 3.9 14 -10 36 36 undefined N/A 30.16 1021 N/A 0 0
4:54 am 04:54 undefined 39 3.9 13 -10.6 34 34 undefined N/A 30.17 1022 N/A 0 0
5:54 am 05:54 undefined 38 3.3 15 -9.4 39 39 undefined N/A 30.18 1022 N/A 0 0
6:54 am 06:54 undefined 38 3.3 15 -9.4 39 39 undefined N/A 30.21 1023 N/A 0 0
7:54 am 07:54 undefined 38 3.3 16 -8.9 41 41 undefined N/A 30.25 1024 N/A 0 0
8:54 am 08:54 undefined 38 3.3 15 -9.4 39 39 undefined N/A 30.26 1025 N/A 0 0
9:54 am 09:54 undefined 39 3.9 21 -6.1 48 48 undefined N/A 30.25 1024 N/A 0 0
10:54 am 10:54 undefined 42 5.6 21 -6.1 43 43 undefined N/A 30.25 1024 N/A 0 0
11:54 am 11:54 undefined 42 5.6 22 -5.6 45 45 undefined N/A 30.23 1024 N/A 0 0
12:54 pm 12:54 undefined 42 5.6 23 -5 47 47 undefined N/A 30.22 1023 N/A 0 0
1:54 pm 13:54 undefined 43 6.1 24 -4.4 47 47 undefined N/A 30.2 1023 N/A 0 0
2:54 pm 14:54 undefined 43 6.1 25 -3.9 49 49 undefined N/A 30.19 1022 N/A 0 0
3:54 pm 15:54 undefined 44 6.7 27 -2.8 51 51 undefined N/A 30.17 1022 N/A 0 0
4:54 pm 16:54 undefined 44 6.7 28 -2.2 53 53 undefined N/A 30.16 1021 N/A 0 0
5:54 pm 17:54 undefined 44 6.7 28 -2.2 53 53 undefined N/A 30.16 1021 N/A 0 0
6:54 pm 18:54 undefined 44 6.7 29 -1.7 55 55 undefined N/A 30.15 1021 N/A 0 0
7:54 pm 19:54 undefined 44 6.7 31 -0.6 60 60 undefined N/A 30.14 1021 N/A 0 0
8:54 pm 20:54 undefined 44 6.7 33 0.6 65 65 undefined N/A 30.17 1022 N/A 0 0
9:54 pm 21:54 undefined 42 5.6 35 1.7 76 76 undefined N/A 30.19 1022 N/A 0 0
10:54 pm 22:54 undefined 40 4.4 37 2.8 89 89 undefined N/A 30.18 1022 N/A 0 0
11:54 pm 23:54 undefined 40 4.4 38 3.3 93 93 undefined N/A 30.18 1022 N/A 0 0

Powered by AerisWeather